Location: Clair
(33.8067°N, 117.9845°W)
Time: 17:44:02
(UTC+00:00)

Cosmos 2082 - Pass Details

Date: 14 February 2026
Orbit: 831 x 854 km, 71.0° (Epoch: 8 March)

Event Time Altitude Azimuth Distance (km) Brightness Sun altitude
Rises 13:45:15 0° 340° (NNW) 3,420 6.6 -11.4°
Reaches altitude 10° 13:47:42 10° 341° (NNW) 2,478 5.9 -10.9°
Maximum altitude 13:53:25 84° 69° (ENE) 853 3.8 -9.7°
Drops below altitude 10° 13:59:03 10° 158° (SSE) 2,449 6.6 -8.6°
Sets 14:01:28 0° 159° (SSE) 3,376 7.3 -8.1°
